Weather History for Amritsar, India

Change the Weather History Date:

Friday, November 29, 2013

  Actual Average Record
Temperature  
Mean Temperature 64 °F -  
Max Temperature 80 °F 70 °F 81 °F (2014)
Min Temperature 48 °F 45 °F 39 °F (2003)
Degree Days  
Heating Degree Days 1    
Growing Degree Days 14 (Base 50)    
Moisture  
Dew Point 51 °F    
Average Humidity 76    
Maximum Humidity 100    
Minimum Humidity 25    
Precipitation  
Precipitation 0.00 in - - ()
Sea Level Pressure  
Sea Level Pressure 30.07 in    
Wind  
Wind Speed 2 mph ()    
Max Wind Speed 17 mph    
Max Gust Speed -    
Visibility 1.7 miles    
Events      
Averages and records for this station are not official NWS values.
T = Trace of Precipitation, MM = Missing Value Source: Averaged Metar Reports

Daily Weather History Graph

Daily Weather History Graph

Search for Another Location

Airport:

Trip Planner

Search our weather history database for the weather conditions in past years. The results will help you decide how hot, cold, wet, or windy it might be!

Date:

Astronomy

Nov. 29, 2013 Rise Set
Actual Time 7:10 AM IST 5:27 PM IST
Civil Twilight 6:44 AM IST 5:53 PM IST
Nautical Twilight 6:14 AM IST 6:23 PM IST
Astronomical Twilight 5:45 AM IST 6:52 PM IST
Moon 3:01 AM IST (11/29) 2:43 PM IST (11/29)
Length of Visible Light 11h 09m
Length of Day
10h 16m
Waning Crescent, 18% of the Moon is Illuminated
Nov 29
Waning Crescent
Dec 3
New
Dec 9
First Quarter
Dec 17
Full
Dec 25
Last Quarter

Hourly Weather History & Observations

Time (IST) Temp. Dew Point Humidity Pressure Visibility Wind Dir Wind Speed Gust Speed Precip Events Conditions
12:00 AM 55.4 °F 55.4 °F 100% 30.12 in 1.2 mi Calm Calm - N/A   Mist
12:30 AM 53.6 °F 53.6 °F 100% 30.12 in 1.2 mi Calm Calm - N/A   Mist
1:00 AM 53.6 °F 53.6 °F 100% 30.12 in 1.2 mi Calm Calm - N/A   Mist
1:30 AM 53.6 °F 53.6 °F 100% 30.12 in 1.2 mi Calm Calm - N/A   Mist
2:00 AM 51.8 °F 51.8 °F 100% 30.09 in 1.0 mi Calm Calm - N/A   Mist
2:30 AM 52 °F 52 °F 100% 29.97 in 1 mi Calm Calm - -   Mist
2:30 AM 51.8 °F 51.8 °F 100% 30.09 in 0.9 mi Calm Calm - N/A   Mist
3:00 AM 51.8 °F 51.8 °F 100% 30.09 in 0.9 mi Calm Calm - N/A   Mist
3:30 AM 51.8 °F 51.8 °F 100% 30.09 in 0.9 mi Calm Calm - N/A   Mist
4:00 AM 51.8 °F 51.8 °F 100% 30.09 in 0.9 mi Calm Calm - N/A   Mist
4:30 AM 51.8 °F 51.8 °F 100% 30.09 in 0.9 mi Calm Calm - N/A   Mist
5:00 AM 50.0 °F 50.0 °F 100% 30.06 in 0.9 mi Calm Calm - N/A   Mist
5:30 AM 51 °F 51 °F 99% 30.09 in 1 mi Calm Calm - -   Mist
5:30 AM 50.0 °F 50.0 °F 100% 30.06 in 0.9 mi Calm Calm - N/A   Mist
6:00 AM 51.8 °F 51.8 °F 100% 30.09 in 0.9 mi Calm Calm - N/A   Mist
6:30 AM 50.0 °F 50.0 °F 100% 30.09 in 0.9 mi Calm Calm - N/A   Mist
7:00 AM 50.0 °F 50.0 °F 100% 30.09 in 0.6 mi Calm Calm - N/A   Mist
7:30 AM 48.2 °F 48.2 °F 100% 30.09 in 0.6 mi Calm Calm - N/A   Mist
8:00 AM 50.0 °F 50.0 °F 100% 30.12 in 0.6 mi Calm Calm - N/A   Mist
8:30 AM - 53 °F % 30.13 in 0 mi North 17.3 mph - -  
8:30 AM 51.8 °F 51.8 °F 100% 30.12 in 0.6 mi Calm Calm - N/A   Mist
9:00 AM 55.4 °F 55.4 °F 100% 30.12 in 0.6 mi Calm Calm - N/A   Mist
9:30 AM 60.8 °F 60.8 °F 100% 30.12 in 0.6 mi Calm Calm - N/A   Mist
10:00 AM 62.6 °F 59.0 °F 88% 30.15 in 1.1 mi NW 4.6 mph - N/A   Mist
10:30 AM 66.2 °F 55.4 °F 68% 30.15 in 1.2 mi Variable 8.1 mph - N/A   Mist
11:30 AM 71 °F 52 °F 41% 30.11 in 1 mi NW 10.4 mph - -   Haze
11:30 AM 71.6 °F 51.8 °F 50% 30.12 in 2.2 mi NW 10.4 mph - N/A   Haze
12:30 PM 75.2 °F 51.8 °F 44% 30.09 in 2.5 mi NW 10.4 mph - N/A   Haze
1:00 PM 75.2 °F 51.8 °F 44% 30.09 in 2.5 mi NW 10.4 mph - N/A   Haze
1:30 PM 77.0 °F 50.0 °F 39% 30.06 in 2.5 mi WNW 10.4 mph - N/A   Haze
2:00 PM 78.8 °F 50.0 °F 36% 30.04 in 2.5 mi WNW 10.4 mph - N/A   Haze
2:30 PM 79 °F 50 °F 25% 30.01 in 2 mi WNW 10.4 mph - -   Haze
2:30 PM 78.8 °F 46.4 °F 32% 30.04 in 3.1 mi WNW 10.4 mph - N/A   Haze
3:00 PM 78.8 °F 46.4 °F 32% 30.04 in 3.1 mi West 10.4 mph - N/A   Haze
3:30 PM 78.8 °F 46.4 °F 32% 30.01 in 3.1 mi WNW 11.5 mph - N/A   Haze
4:00 PM 78.8 °F 46.4 °F 32% 30.01 in 3.1 mi WNW 9.2 mph - N/A   Haze
4:30 PM 77.0 °F 46.4 °F 34% 30.01 in 3.1 mi West 6.9 mph - N/A   Haze
5:00 PM 73.4 °F 46.4 °F 38% 30.01 in 3.1 mi Variable 2.3 mph - N/A   Haze
5:30 PM 71 °F 48 °F 33% 29.99 in 2 mi Calm Calm - -   Haze
5:30 PM 69.8 °F 48.2 °F 46% 30.01 in 3.1 mi Calm Calm - N/A   Haze
6:00 PM 66.2 °F 50.0 °F 56% 30.01 in 3.1 mi Calm Calm - N/A   Haze
6:30 PM 62.6 °F 50.0 °F 63% 30.01 in 3.1 mi Calm Calm - N/A   Haze
7:00 PM 62.6 °F 50.0 °F 63% 30.01 in 3.1 mi Calm Calm - N/A   Haze
7:30 PM 60.8 °F 50.0 °F 68% 30.04 in 3.1 mi Calm Calm - N/A   Haze
8:00 PM 60.8 °F 51.8 °F 72% 30.04 in 2.8 mi Calm Calm - N/A   Haze
8:30 PM 58 °F 54 °F 80% 30.04 in 1 mi Calm Calm - -   Mist
8:30 PM 59.0 °F 53.6 °F 82% 30.04 in 2.2 mi Calm Calm - N/A   Mist
9:00 PM 57.2 °F 53.6 °F 88% 30.04 in 2.2 mi Calm Calm - N/A   Mist
9:30 PM 57.2 °F 50.0 °F 77% 30.04 in 2.2 mi Calm Calm - N/A   Mist
10:00 PM 55.4 °F 51.8 °F 88% 30.04 in 2.2 mi Calm Calm - N/A   Mist
10:30 PM 55.4 °F 50.0 °F 82% 30.04 in 2.2 mi Calm Calm - N/A   Mist
11:00 PM 55.4 °F 55.4 °F 100% 30.04 in 2.2 mi Calm Calm - N/A   Mist
11:30 PM 54 °F 54 °F 100% 30.04 in 1 mi Calm Calm - -   Mist
11:30 PM 53.6 °F 53.6 °F 100% 30.04 in 1.9 mi Calm Calm - N/A   Mist